Flag for Canada Weather past 2 weeks in Toronto, Ontario, Canada

Now
14 °F

Sunny.


Feels Like: 4 °F
Forecast: 12 / 26 °F
Wind: 7 mph from North

Location: Toronto Pearson International Airport

Current Time: Jan 28, 2015 at 9:56:22 AM

Latest Report: Jan 28, 2015 at 9:00 AM


Visibility: 15 mi

Pressure: 30.33 "Hg

Humidity: 79%

Dew point: 9 °F

Location of TorontoLocation

Historic Weather in Toronto — Graph

°F

Toronto temperature yesterday

Maximum temperature yesterday: 19 °F (at 1:00 PM)
Minimum temperature yesterday: 10 °F (at 3:00 AM)
Average temperature yesterday: 14 °F

Past Weeks' High & Low Weather Summary

 TemperatureHumidityPressure
High43 °F (Jan 18, 4:00 AM)93% (Jan 18, 9:00 AM)30.86 "Hg (Jan 18, 9:00 AM)
Low-6 °F (Jan 13, 8:00 AM)35% (Jan 27, 4:00 PM)29.48 "Hg (Jan 24, 4:00 PM)
Average19 °F70%30.06 "Hg
* Reported Jan 13 8:00 AM — Jan 28 8:00 AM, Toronto, Weather by CustomWeather, © 2014

Note: Actual official high and low records may vary slightly from our data, if they occured in-between our weather recording intervals... More about our weather records

Advertising

Toronto weather history for previous 24 hours

 ConditionsComfort  
Time TempWeatherWind HumidityBarometerVisibility
8:00 AM
Jan 28
9 °FSunny.6 mph85%30.31 "Hg15 mi
7:00 AM10 °FClear.9 mph79%30.28 "Hg15 mi
6:00 AM10 °FClear.8 mph72%30.26 "Hg15 mi
5:00 AM10 °FClear.7 mph67%30.24 "Hg15 mi
4:00 AM9 °FClear.10 mph72%30.20 "Hg15 mi
3:00 AM9 °FClear.10 mph66%30.19 "Hg15 mi
2:00 AM10 °FClear.9 mph61%30.20 "Hg15 mi
1:00 AM9 °FClear.9 mph66%30.19 "Hg15 mi
12:00 AM12 °FClear.13 mph62%30.17 "Hg15 mi
11:00 PM
Jan 27
12 °FClear.12 mph62%30.17 "Hg15 mi
10:00 PM14 °FClear.14 mph57%30.17 "Hg15 mi
9:00 PM14 °FClear.13 mph62%30.16 "Hg15 mi
8:00 PM12 °FPassing clouds.14 mph62%30.18 "Hg15 mi
7:00 PM14 °FPassing clouds.12 mph57%30.18 "Hg15 mi
6:00 PM16 °FPassing clouds.15 mph45%30.17 "Hg15 mi
5:00 PM19 °FPartly sunny.16 mph42%30.14 "Hg15 mi
4:00 PM19 °FBroken clouds.15 mph35%30.12 "Hg15 mi
3:00 PM19 °FPartly sunny.13 mph42%30.10 "Hg15 mi
2:00 PM19 °FPartly sunny.13 mph53%30.09 "Hg15 mi
1:00 PM19 °FScattered clouds.9 mph49%30.09 "Hg15 mi
12:00 PM16 °FPartly sunny.9 mph62%30.10 "Hg15 mi
11:00 AM14 °FPartly sunny.10 mph67%30.11 "Hg15 mi
10:00 AM12 °FLight snow. Mostly cloudy.13 mph73%30.12 "Hg3 mi
9:50 AM12 °FLight snow. Mostly cloudy.14 mph73%30.11 "Hg2 mi
9:00 AM10 °FLight snow. Broken clouds.12 mph79%30.11 "Hg6 mi
Weather by CustomWeather, © 2014

See weather overviewHow to use our weather pages